• In Belarus
  • List of Countries
  • For 7 days
  • Water Temperature
  • Satellite Maps
  • Weather Map
  • Weather Widgets
  • user-avatar
    Login

    Hourly Weather Tarascha

    Today, 23 September, Sunday

    Time Temperature Precipitation Wind Pressure Humidity
    00:00 +10°C° 0.7 mm 6 mps 747 mmHg 85%
    01:00 +10°C° 0.7 mm 5 mps 747 mmHg 85%
    02:00 +10°C° 0 mm 4 mps 747 mmHg 86%
    03:00 +10°C° 0.1 mm 3 mps 747 mmHg 87%
    04:00 +9°C° 0.1 mm 3 mps 747 mmHg 88%
    05:00 +9°C° 0.1 mm 3 mps 747 mmHg 88%
    06:00 +10°C° 0 mm 3 mps 748 mmHg 85%
    07:00 +10°C° 0 mm 3 mps 748 mmHg 82%
    08:00 +11°C° 0 mm 3 mps 748 mmHg 79%
    09:00 +12°C° 0 mm 4 mps 748 mmHg 72%
    10:00 +14°C° 0 mm 4 mps 748 mmHg 64%
    11:00 +16°C° 0 mm 5 mps 748 mmHg 56%
    12:00 +16°C° 0 mm 5 mps 748 mmHg 53%
    13:00 +17°C° 0 mm 5 mps 747 mmHg 51%
    14:00 +17°C° 0 mm 5 mps 747 mmHg 48%
    15:00 +18°C° 0 mm 4 mps 747 mmHg 51%
    16:00 +17°C° 0 mm 3 mps 747 mmHg 54%
    17:00 +17°C° 0 mm 2 mps 747 mmHg 56%
    18:00 +16°C° 0 mm 2 mps 747 mmHg 59%
    19:00 +14°C° 0 mm 2 mps 747 mmHg 63%
    20:00 +13°C° 0 mm 2 mps 747 mmHg 66%
    21:00 +13°C° 0 mm 2 mps 747 mmHg 66%
    22:00 +13°C° 0 mm 2 mps 747 mmHg 67%
    23:00 +12°C° 0 mm 3 mps 746 mmHg 68%

    Tomorrow, 24 September, Monday

    Time Temperature Precipitation Wind Pressure Humidity
    00:00 +12°C° 0 mm 3 mps 746 mmHg 66%
    01:00 +12°C° 0 mm 4 mps 745 mmHg 64%
    02:00 +12°C° 0 mm 5 mps 745 mmHg 62%
    03:00 +13°C° 0 mm 6 mps 743 mmHg 57%
    04:00 +12°C° 0 mm 7 mps 742 mmHg 52%
    05:00 +13°C° 0 mm 9 mps 741 mmHg 46%
    06:00 +13°C° 0.2 mm 9 mps 741 mmHg 53%
    07:00 +14°C° 0.2 mm 10 mps 740 mmHg 60%
    08:00 +16°C° 0.2 mm 11 mps 740 mmHg 67%
    09:00 +16°C° 2.5 mm 10 mps 739 mmHg 74%
    10:00 +16°C° 2.5 mm 9 mps 738 mmHg 81%
    11:00 +16°C° 2.5 mm 9 mps 738 mmHg 87%
    12:00 +16°C° 1.9 mm 9 mps 738 mmHg 86%
    13:00 +15°C° 1.9 mm 9 mps 738 mmHg 86%
    14:00 +15°C° 1.9 mm 9 mps 738 mmHg 85%
    15:00 +13°C° 0.5 mm 9 mps 739 mmHg 82%
    16:00 +11°C° 0.5 mm 9 mps 739 mmHg 80%
    17:00 +10°C° 0.5 mm 9 mps 740 mmHg 77%
    18:00 +9°C° 0 mm 7 mps 741 mmHg 79%
    19:00 +9°C° 0 mm 6 mps 741 mmHg 80%
    20:00 +8°C° 0 mm 5 mps 742 mmHg 81%
    21:00 +8°C° 0 mm 5 mps 742 mmHg 81%
    22:00 +8°C° 0 mm 5 mps 743 mmHg 81%
    23:00 +7°C° 0 mm 5 mps 743 mmHg 81%

    Day after tomorrow, 25 September, Tuesday

    Time Temperature Precipitation Wind Pressure Humidity
    00:00 +7°C° 0 mm 6 mps 743 mmHg 82%
    01:00 +7°C° 0 mm 6 mps 743 mmHg 82%
    02:00 +5°C° 0 mm 6 mps 744 mmHg 82%
    03:00 +5°C° 0 mm 6 mps 744 mmHg 82%
    04:00 +5°C° 0 mm 6 mps 744 mmHg 83%
    05:00 +4°C° 0 mm 6 mps 744 mmHg 84%
    06:00 +5°C° 0.2 mm 6 mps 744 mmHg 83%
    07:00 +5°C° 0.2 mm 6 mps 745 mmHg 82%
    08:00 +6°C° 0.2 mm 7 mps 745 mmHg 81%
    09:00 +6°C° 0.4 mm 7 mps 746 mmHg 80%
    10:00 +6°C° 0.4 mm 7 mps 747 mmHg 79%
    11:00 +8°C° 0.4 mm 7 mps 747 mmHg 78%
    12:00 +7°C° 0 mm 8 mps 748 mmHg 71%
    13:00 +9°C° 0 mm 8 mps 748 mmHg 63%
    14:00 +10°C° 0 mm 8 mps 749 mmHg 56%
    15:00 +10°C° 0 mm 7 mps 749 mmHg 56%
    16:00 +9°C° 0 mm 6 mps 750 mmHg 57%
    17:00 +9°C° 0 mm 6 mps 750 mmHg 57%
    18:00 +8°C° 0 mm 5 mps 751 mmHg 61%
    19:00 +7°C° 0 mm 5 mps 751 mmHg 64%
    20:00 +6°C° 0 mm 5 mps 752 mmHg 68%
    21:00 +5°C° 0 mm 5 mps 752 mmHg 70%
    22:00 +5°C° 0 mm 5 mps 752 mmHg 72%
    23:00 +5°C° 0 mm 5 mps 753 mmHg 74%

    26 September, Wednesday

    Time Temperature Precipitation Wind Pressure Humidity
    00:00 +3°C° 0 mm 5 mps 753 mmHg 76%
    01:00 +3°C° 0 mm 5 mps 753 mmHg 78%
    02:00 +3°C° 0 mm 5 mps 754 mmHg 79%
    03:00 +3°C° 0 mm 5 mps 754 mmHg 80%
    04:00 +2°C° 0 mm 5 mps 754 mmHg 81%
    05:00 +3°C° 0 mm 4 mps 755 mmHg 82%
    06:00 +3°C° 0 mm 5 mps 755 mmHg 78%
    07:00 +3°C° 0 mm 5 mps 756 mmHg 74%
    08:00 +4°C° 0 mm 6 mps 756 mmHg 70%
    09:00 +5°C° 0 mm 6 mps 757 mmHg 63%
    10:00 +7°C° 0 mm 6 mps 757 mmHg 56%
    11:00 +8°C° 0 mm 6 mps 757 mmHg 49%
    12:00 +9°C° 0 mm 5 mps 757 mmHg 47%
    13:00 +9°C° 0 mm 5 mps 757 mmHg 45%
    14:00 +10°C° 0 mm 5 mps 757 mmHg 43%
    15:00 +10°C° 0 mm 4 mps 757 mmHg 46%
    16:00 +10°C° 0 mm 3 mps 757 mmHg 50%
    17:00 +10°C° 0 mm 2 mps 757 mmHg 53%
    18:00 +9°C° 0 mm 2 mps 757 mmHg 57%
    19:00 +7°C° 0 mm 2 mps 757 mmHg 60%
    20:00 +6°C° 0 mm 2 mps 758 mmHg 63%
    21:00 +6°C° 0 mm 2 mps 757 mmHg 65%
    22:00 +5°C° 0 mm 3 mps 757 mmHg 66%
    23:00 +5°C° 0 mm 3 mps 757 mmHg 68%

    27 September, Thursday

    Time Temperature Precipitation Wind Pressure Humidity
    00:00 +5°C° 0 mm 3 mps 757 mmHg 66%
    01:00 +6°C° 0 mm 4 mps 756 mmHg 64%
    02:00 +6°C° 0 mm 4 mps 756 mmHg 62%
    03:00 +6°C° 0 mm 4 mps 755 mmHg 63%
    04:00 +6°C° 0 mm 4 mps 755 mmHg 64%
    05:00 +5°C° 0 mm 5 mps 754 mmHg 64%
    06:00 +5°C° 0 mm 6 mps 754 mmHg 62%
    07:00 +7°C° 0 mm 6 mps 753 mmHg 60%
    08:00 +8°C° 0 mm 7 mps 753 mmHg 58%
    09:00 +9°C° 0 mm 7 mps 753 mmHg 55%
    10:00 +10°C° 0 mm 7 mps 752 mmHg 53%
    11:00 +11°C° 0 mm 8 mps 752 mmHg 51%
    12:00 +11°C° 0.1 mm 8 mps 752 mmHg 53%
    13:00 +11°C° 0.1 mm 8 mps 751 mmHg 55%
    14:00 +11°C° 0.1 mm 8 mps 751 mmHg 57%
    15:00 +11°C° 0 mm 7 mps 750 mmHg 59%
    16:00 +11°C° 0 mm 7 mps 750 mmHg 60%
    17:00 +10°C° 0 mm 6 mps 750 mmHg 62%
    18:00 +10°C° 0 mm 6 mps 750 mmHg 66%
    19:00 +9°C° 0 mm 5 mps 750 mmHg 70%
    20:00 +10°C° 0 mm 4 mps 750 mmHg 74%
    21:00 +8°C° 0 mm 4 mps 750 mmHg 76%
    22:00 +8°C° 0 mm 4 mps 750 mmHg 78%
    23:00 +8°C° 0 mm 4 mps 750 mmHg 80%

    28 September, Friday

    Time Temperature Precipitation Wind Pressure Humidity
    00:00 +8°C° 0 mm 4 mps 750 mmHg 83%
    01:00 +9°C° 0 mm 3 mps 750 mmHg 87%
    02:00 +8°C° 0 mm 3 mps 750 mmHg 91%
    03:00 +8°C° 0 mm 3 mps 750 mmHg 92%
    04:00 +8°C° 0 mm 3 mps 750 mmHg 93%
    05:00 +8°C° 0 mm 3 mps 750 mmHg 95%
    06:00 +9°C° 0 mm 3 mps 750 mmHg 91%
    07:00 +11°C° 0 mm 3 mps 750 mmHg 88%
    08:00 +12°C° 0 mm 3 mps 750 mmHg 85%
    09:00 +14°C° 0 mm 4 mps 750 mmHg 78%
    10:00 +17°C° 0 mm 4 mps 750 mmHg 72%
    11:00 +17°C° 0 mm 5 mps 750 mmHg 65%
    12:00 +19°C° 0 mm 5 mps 749 mmHg 62%
    13:00 +20°C° 0 mm 5 mps 749 mmHg 60%
    14:00 +21°C° 0 mm 6 mps 748 mmHg 57%
    15:00 +20°C° 0 mm 5 mps 748 mmHg 60%
    16:00 +20°C° 0 mm 4 mps 748 mmHg 64%
    17:00 +19°C° 0 mm 3 mps 748 mmHg 68%
    18:00 +18°C° 0 mm 3 mps 748 mmHg 73%
    19:00 +17°C° 0 mm 3 mps 748 mmHg 77%
    20:00 +14°C° 0 mm 3 mps 748 mmHg 82%
    21:00 +14°C° 0 mm 3 mps 749 mmHg 86%
    22:00 +13°C° 0 mm 3 mps 749 mmHg 89%
    23:00 +12°C° 0 mm 3 mps 749 mmHg 92%
    Show more